Simultaneous Nadir Overpasses (SNOs) Predictions

Prediction of SNOs between NPP and TERRA Satellite Orbit:

Table of predicted SNOs for the next 14.0 days since TLE Epoch: 12/2/2016
Index Date (NPP) Time (NPP) Lat,Lon (NPP) SZA (NPP ) Date (TERRA) Time (TERRA) Lat,Lon (TERRA) SZA (TERRA ) Distance(km) Time Diff (sec)
1 12/04/2016 10:39:53 -68.38,-161.30 89.41 12/04/2016 10:40:34 -68.39,-161.31 89.41 1.19 41
2 12/04/2016 11:30:37 68.27, 6.16 90.48 12/04/2016 11:30:01 68.28, 6.20 90.49 1.91 36
3 12/07/2016 02:06:16 69.03, 146.30 91.55 12/07/2016 02:07:25 68.94, 147.61 91.47 53.35 69
4 12/07/2016 02:56:47 -68.34, -45.47 89.14 12/07/2016 02:57:04 -68.34, -45.50 89.14 1.41 17
5 12/07/2016 03:47:31 68.23, 121.98 90.76 12/07/2016 03:46:31 68.22, 122.01 90.75 1.25 60
6 12/09/2016 18:23:00 68.45, -97.17 91.24 12/09/2016 18:24:03 68.43, -97.15 91.22 3.13 63
7 12/09/2016 19:13:41 -68.30, 70.35 88.91 12/09/2016 19:13:33 -68.32, 70.36 88.89 2.31 8
8 12/09/2016 20:04:18 67.81,-121.73 90.61 12/09/2016 20:03:06 67.87,-122.52 90.66 33.94 72
9 12/12/2016 10:39:53 68.42, 18.65 91.42 12/12/2016 10:40:31 68.40, 18.71 91.40 3.12 38
10 12/12/2016 11:30:34 -68.27,-173.84 88.73 12/12/2016 11:30:02 -68.24,-173.85 88.76 2.74 32
11 12/15/2016 02:06:15 -69.14, -33.86 87.70 12/15/2016 02:07:24 -68.98, -32.34 87.86 62.71 69
12 12/15/2016 02:56:46 68.33, 134.53 91.50 12/15/2016 02:57:01 68.31, 134.48 91.47 3.40 15
13 12/15/2016 03:47:28 -68.23, -58.03
